ASY628 KNUW-EGUN

Flight info

Callsign ASY628
Flight time N/A
Altitude 33000
Route N0436F330 DCT BOOTH DCT YZU J527 YMM/N0431F330 DCT YSF DCT YEK J540 YZS/N0435F350 J540 YTE DCT YXP/M074F350 DCT 66N060W 66N050W 65N040W 64N030W/M074F370 62N020W 58N010W/N0423F370 DCT EMGAT UN57 DCS UL612 CROFT DCT MCT DCT LISTO UL612 HON L10 DTY P166 WELIN DCT
Aircraft C17/H-SDFGHIJ5KM1RTUWXYZ/LB101

Departure

Time 2026-05-04 14:02
Airport Whidbey Island Naval Air Station (Ault Field) (KNUW)

Arrival

Time N/A
Airport RAF Mildenhall (EGUN)
Time Latitude Longitude Altitude Speed Heading
2026-05-04 13:53 48.34129 -122.66161 29 ft 0 kts 146°
2026-05-04 13:58 48.34111 -122.66110 28 ft 13 kts 110°
2026-05-04 13:58 48.34046 -122.65961 29 ft 6 kts 139°
2026-05-04 13:58 48.34009 -122.65907 28 ft 9 kts 136°
2026-05-04 13:59 48.33970 -122.65860 29 ft 6 kts 135°
2026-05-04 13:59 48.33939 -122.65802 29 ft 6 kts 109°
2026-05-04 13:59 48.34025 -122.65478 29 ft 17 kts 62°
2026-05-04 14:00 48.34070 -122.65331 29 ft 14 kts 65°
2026-05-04 14:00 48.34150 -122.65072 27 ft 13 kts 64°
2026-05-04 14:00 48.34186 -122.64962 29 ft 11 kts 64°
2026-05-04 14:01 48.34223 -122.64894 28 ft 7 kts 25°
2026-05-04 14:01 48.34272 -122.64903 27 ft 10 kts 330°
2026-05-04 14:01 48.34732 -122.65228 28 ft 101 kts 334°
2026-05-04 14:02 48.35574 -122.65832 114 ft 157 kts 334°
2026-05-04 14:02 48.36579 -122.66572 858 ft 163 kts 333°
2026-05-04 14:02 48.37641 -122.67459 1283 ft 196 kts 329°
2026-05-04 14:02 48.38888 -122.68554 1548 ft 225 kts 332°
2026-05-04 14:03 48.40378 -122.69693 1991 ft 245 kts 338°
2026-05-04 14:03 48.42065 -122.69923 2747 ft 252 kts
2026-05-04 14:03 48.43846 -122.69487 3490 ft 266 kts 12°
2026-05-04 14:03 48.45673 -122.68824 4227 ft 272 kts 15°
2026-05-04 14:04 48.49349 -122.67188 5701 ft 279 kts 22°
2026-05-04 14:04 48.51139 -122.65998 6445 ft 283 kts 24°
2026-05-04 14:04 48.52971 -122.64844 7155 ft 287 kts 21°
2026-05-04 14:05 48.56721 -122.62677 8643 ft 291 kts 21°
2026-05-04 14:05 48.58626 -122.61543 9399 ft 295 kts 21°
2026-05-04 14:05 48.60544 -122.60388 10144 ft 298 kts 21°
2026-05-04 14:06 48.62484 -122.59227 10861 ft 301 kts 21°
2026-05-04 14:06 48.63773 -122.58457 11342 ft 301 kts 21°
2026-05-04 14:06 48.65719 -122.57296 12082 ft 301 kts 21°
2026-05-04 14:06 48.67669 -122.56129 12847 ft 303 kts 21°
2026-05-04 14:07 48.69636 -122.54948 13628 ft 305 kts 20°
2026-05-04 14:07 48.71610 -122.53763 14333 ft 306 kts 20°
2026-05-04 14:07 48.74240 -122.52185 15285 ft 306 kts 20°
2026-05-04 14:07 48.75818 -122.51236 15881 ft 306 kts 20°
2026-05-04 14:08 48.80133 -122.48637 17552 ft 300 kts 20°
2026-05-04 14:08 48.81435 -122.47854 18080 ft 297 kts 20°
2026-05-04 14:08 48.83343 -122.46702 18729 ft 294 kts 20°
2026-05-04 14:09 48.87180 -122.44387 19709 ft 298 kts 19°
2026-05-04 14:09 48.89110 -122.43221 20184 ft 298 kts 19°
2026-05-04 14:10 48.93019 -122.40855 20971 ft 306 kts 19°
2026-05-04 14:10 48.95013 -122.39646 21362 ft 311 kts 19°
2026-05-04 14:10 48.97040 -122.38416 21746 ft 316 kts 19°
2026-05-04 14:10 48.99099 -122.37167 22137 ft 321 kts 19°
2026-05-04 14:11 49.01180 -122.35901 22531 ft 324 kts 19°
2026-05-04 14:11 49.05423 -122.33320 23337 ft 332 kts 19°
2026-05-04 14:11 49.07545 -122.32027 23698 ft 335 kts 19°
2026-05-04 14:12 49.09715 -122.30704 24040 ft 337 kts 19°
2026-05-04 14:12 49.11904 -122.29367 24390 ft 340 kts 19°
2026-05-04 14:12 49.16324 -122.26665 25075 ft 344 kts 19°
2026-05-04 14:13 49.18546 -122.25305 25435 ft 345 kts 19°
2026-05-04 14:13 49.20779 -122.23935 25803 ft 346 kts 19°
2026-05-04 14:13 49.23017 -122.22564 26178 ft 347 kts 19°
2026-05-04 14:13 49.25264 -122.21183 26546 ft 348 kts 19°
2026-05-04 14:14 49.27511 -122.19801 26923 ft 348 kts 19°
2026-05-04 14:14 49.31998 -122.17039 27725 ft 348 kts 19°
2026-05-04 14:14 49.34244 -122.15655 28095 ft 347 kts 19°
2026-05-04 14:15 49.38704 -122.12903 28921 ft 344 kts 19°
2026-05-04 14:15 49.43121 -122.10171 29766 ft 340 kts 19°
2026-05-04 14:16 49.47463 -122.07477 30547 ft 334 kts 19°
2026-05-04 14:16 49.49628 -122.06133 30762 ft 335 kts 20°
2026-05-04 14:17 49.53738 -122.02681 31242 ft 339 kts 29°
2026-05-04 14:17 49.55630 -122.00570 31472 ft 341 kts 33°
2026-05-04 14:17 49.59380 -121.96059 31918 ft 342 kts 33°
2026-05-04 14:18 49.61270 -121.93829 32139 ft 342 kts 33°
2026-05-04 14:18 49.65049 -121.89353 32531 ft 342 kts 33°
2026-05-04 14:19 49.68836 -121.84845 32845 ft 346 kts 33°
2026-05-04 14:19 49.72701 -121.80246 32924 ft 356 kts 33°
2026-05-04 14:20 49.76677 -121.75494 32944 ft 366 kts 33°
2026-05-04 14:20 49.80773 -121.70596 32966 ft 378 kts 33°
2026-05-04 14:21 49.87072 -121.63034 32951 ft 371 kts 33°
2026-05-04 14:21 49.89077 -121.60622 32971 ft 359 kts 32°
2026-05-04 14:21 49.91040 -121.58271 32973 ft 356 kts 32°
2026-05-04 14:22 49.94975 -121.53527 32980 ft 362 kts 33°
2026-05-04 14:22 49.98997 -121.48663 32987 ft 370 kts 33°
2026-05-04 14:23 50.05076 -121.41300 32994 ft 367 kts 32°
2026-05-04 14:24 50.09062 -121.36460 32992 ft 365 kts 32°
2026-05-04 14:24 50.13061 -121.31591 32974 ft 365 kts 32°
2026-05-04 14:25 50.17060 -121.26712 32978 ft 365 kts 32°
2026-05-04 14:25 50.23076 -121.19351 32997 ft 367 kts 32°
2026-05-04 14:26 50.27087 -121.14429 32989 ft 366 kts 32°
2026-05-04 14:26 50.31080 -121.09523 32982 ft 363 kts 32°
2026-05-04 14:27 50.35051 -121.04629 32982 ft 364 kts 32°
2026-05-04 14:27 50.39035 -120.99710 32976 ft 366 kts 32°
2026-05-04 14:28 50.43031 -120.94762 32978 ft 366 kts 32°
2026-05-04 14:28 50.47019 -120.89816 32983 ft 365 kts 32°
2026-05-04 14:29 50.54967 -120.79925 32980 ft 364 kts 32°
2026-05-04 14:30 50.58915 -120.74996 32987 ft 365 kts 32°
2026-05-04 14:31 50.64883 -120.67523 33003 ft 365 kts 32°
2026-05-04 14:32 50.72812 -120.57559 32990 ft 364 kts 32°
2026-05-04 14:32 50.76772 -120.52565 32971 ft 364 kts 32°
2026-05-04 14:33 50.80725 -120.47568 32975 ft 363 kts 32°
2026-05-04 14:33 50.84667 -120.42572 32980 ft 363 kts 32°
2026-05-04 14:34 50.88621 -120.37555 32998 ft 365 kts 32°
2026-05-04 14:34 50.92588 -120.32505 32988 ft 365 kts 32°
2026-05-04 14:35 50.96533 -120.27474 32992 ft 364 kts 32°
2026-05-04 14:35 51.00480 -120.22429 32983 ft 365 kts 32°
2026-05-04 14:36 51.04409 -120.17396 32970 ft 366 kts 32°
2026-05-04 14:36 51.08373 -120.12307 32989 ft 366 kts 32°
2026-05-04 14:37 51.12326 -120.07219 32989 ft 366 kts 32°